Find Starlink 31947

NORAD ID: 59835 Int'l Des: 2024-097 Owner: SPXS Country: US Constellation: starlink operational
LEOCIRCULAR

Current View

Loading 3D Globe...

About Starlink 31947

Starlink 31947 (NORAD 59835) is a starlink constellation satellite (v2 mini) launched May 23, 2024 by SPXS of US. It operates in LEO, CIRCULAR orbit with a mass of 730.00 kg.

Upcoming Passes

Passes for default location (London). Set your location on the main map for personalized predictions.

Altitude History

Loading altitude history...

Two-Line Element Set

1 59835U 24097A 26263.04614521 .00003197 00000-0 12555-3 0 9995
2 59835 43.0040 256.5259 0001688 271.7358 88.3300 15.27613477131643
Epoch: Sep 20, 2026 • Age: 15 hours

Current Status

Altitude 488.9 km
Apogee / Perigee N/A
Velocity 7.62 km/s
Sub-Earth Point -26.29°S, 137.66°W
Launch Date May 23, 2024
Age 2.3 years
Type internet

Technical Details

Classification Payload
Mass 730.00 kg
Dry Mass 700.00 kg
Length 0.30 m
Span 29.00 m
Shape ? Box + pan
Manufacturer SPXS
Bus Type Starlink V2M
Phase Status In Orbit
Owner/State SPXS/US

Most Searched